This is the latest recevied weather packets stored in our database for station/object HS3UAA-1. If no packets are shown the sender has not sent any weather packets the latest 10 day(s).
| Time | Temp. | Humidity | Pressure | Rain* | Wind** | Luminosity | Snow |
|---|---|---|---|---|---|---|---|
| 1788396530 | 29.44° C | 49% | 997 hPa | - | - | 0 W/m² | - |
| 1788396208 | 29.44° C | 50% | 997 hPa | - | - | 0 W/m² | - |
| 1788395615 | 29.44° C | 49% | 997 hPa | - | - | 0 W/m² | - |
| 1788395293 | 30° C | 49% | 996 hPa | - | - | 0 W/m² | - |
| 1788394971 | 30° C | 46% | 996 hPa | - | - | 0 W/m² | - |
| 1788394650 | 30° C | 44% | 996 hPa | - | - | 0 W/m² | - |
| 1788394328 | 30.56° C | 44% | 996 hPa | - | - | 0 W/m² | - |
| 1788394005 | 31.67° C | 44% | 996 hPa | - | - | 0 W/m² | - |
| 1788393683 | 33.33° C | 48% | 996 hPa | - | - | 0 W/m² | - |
| 1788393361 | 32.78° C | 50% | 996 hPa | - | - | 0 W/m² | - |
| 1788393039 | 33.89° C | 47% | 996 hPa | - | - | 0 W/m² | - |
| 1788392717 | 33.89° C | 48% | 996 hPa | - | - | 0 W/m² | - |
| 1788392394 | 33.89° C | 47% | 996 hPa | - | - | 0 W/m² | - |
| 1788392072 | 33.33° C | 48% | 996 hPa | - | - | 0 W/m² | - |
| 1788391750 | 33.33° C | 49% | 996 hPa | - | - | 0 W/m² | - |
| 1788391429 | 33.33° C | 49% | 996 hPa | - | - | 0 W/m² | - |
| 1788390809 | 32.78° C | 50% | 996 hPa | - | - | 0 W/m² | - |
| 1788390487 | 33.33° C | 49% | 996 hPa | - | - | 0 W/m² | - |
| 1788390165 | 33.89° C | 48% | 996 hPa | - | - | 0 W/m² | - |
| 1788389843 | 32.78° C | 50% | 996 hPa | - | - | 0 W/m² | - |
| 1788389521 | 33.89° C | 48% | 996 hPa | - | - | 0 W/m² | - |
| 1788389199 | 33.33° C | 49% | 996 hPa | - | - | 0 W/m² | - |
| 1788388877 | 33.33° C | 49% | 996 hPa | - | - | 0 W/m² | - |
| 1788388555 | 32.78° C | 50% | 996 hPa | - | - | 0 W/m² | - |
| 1788388233 | 33.33° C | 49% | 996 hPa | - | - | 0 W/m² | - |
* Rain since midnight (hover to see other rain measurements)
** Current wind speed in m/s (hover to see current wind gust speed)